Simultaneous Nadir Overpasses (SNOs) Predictions

Prediction of SNOs between AURA and NPP Satellite Orbit:

Table of predicted SNOs for the next 14.0 days since TLE Epoch: 8/28/2021
Index Date (AURA) Time (AURA) Lat,Lon (AURA) SZA (AURA ) Date (NPP) Time (NPP) Lat,Lon (NPP) SZA (NPP ) Distance(km) Time Diff (sec)
1 08/29/2021 02:51:57 79.31, 32.53 83.57 08/29/2021 02:51:32 79.30, 32.41 83.61 2.88 25
2 08/29/2021 03:41:17 -79.58,-157.94 96.83 08/29/2021 03:42:09 -79.58,-158.00 96.85 1.31 52
3 08/31/2021 18:20:16 -75.94, -34.08 91.35 08/31/2021 18:19:02 -76.14, -35.16 91.17 37.15 74
4 08/31/2021 19:08:23 79.42, 149.14 84.32 08/31/2021 19:08:25 79.42, 149.09 84.33 1.05 2
5 09/03/2021 10:35:32 -79.19, 95.88 94.45 09/03/2021 10:34:44 -79.18, 95.76 94.39 2.66 48
6 09/03/2021 11:24:48 79.56, -94.00 85.04 09/03/2021 11:25:17 79.56, -93.93 85.00 1.32 29
7 09/06/2021 02:51:55 -79.37,-147.07 93.77 09/06/2021 02:51:34 -79.37,-147.05 93.76 0.26 21
8 09/06/2021 03:41:15 79.58, 22.04 85.94 09/06/2021 03:42:12 79.57, 21.94 85.92 2.26 57
9 09/08/2021 18:19:00 79.21, 160.18 87.39 09/08/2021 18:17:49 79.22, 160.26 87.43 1.73 71



Historial Predications of SNOs between AURA and NPP
